Hourly Data Report for October 10, 2013

All times are specified in Local Standard Time (LST). Add 1 hour to adjust for Daylight Saving Time where and when it is observed.

FREDERICTON
NEW BRUNSWICK

45°52'08.000" N
66°32'14.000" W
20.70 m
8101505
71700
YFC

Download Data

Hourly Data (October 2013)
Hourly Data Report for October 10, 2013
Temp Definition
°C
Dew Point Temp Definition
°C
Rel Hum Definition
%
Wind Dir Definition
10's deg

Wind Spd Definition
km/h
Visibility Definition
km
Stn Press Definition
kPa
Hmdx Definition


Wind Chill Definition


Weather Definition


TIME
00:00 Legend Double Dagger 5.4 4.2 92 20 13 16.1 102.41     LegendNANA
01:00 Legend Double Dagger 4.7 3.9 95 20 9 16.1 102.38     LegendNANA
02:00 Legend Double Dagger 4.5 3.8 95 21 5 16.1 102.37     LegendNANA
03:00 Legend Double Dagger 3.5 3.1 97   0 16.1 102.35     LegendNANA
04:00 Legend Double Dagger 2.7 2.4 98 18 5 16.1 102.30     LegendNANA
05:00 Legend Double Dagger 1.9 1.8 99 19 5 8.1 102.28     LegendNANA
06:00 Legend Double Dagger 2.7 2.6 99 20 8 16.1 102.29     LegendNANA
07:00 Legend Double Dagger 2.2 2.1 99 22 8 16.1 102.29     LegendNANA
08:00 Legend Double Dagger 5.2 4.4 95 LegendMM 4 16.1 102.32     LegendNANA
09:00 Legend Double Dagger 8.7 6.0 83 18 5 16.1 102.30     LegendNANA
10:00 Legend Double Dagger 12.1 6.7 69 20 8 16.1 102.23     LegendNANA
11:00 Legend Double Dagger 16.0 6.3 52 22 13 16.1 102.17     LegendNANA
12:00 Legend Double Dagger 18.8 5.1 40 26 11 16.1 102.12     LegendNANA
13:00 Legend Double Dagger 20.6 4.4 34 26 15 16.1 102.05     LegendNANA
14:00 Legend Double Dagger 19.8 5.5 39 22 15 16.1 101.99     LegendNANA
15:00 Legend Double Dagger 20.1 5.9 39 23 15 16.1 101.95     LegendNANA
16:00 Legend Double Dagger 20.7 7.0 41 24 15 16.1 101.90     LegendNANA
17:00 Legend Double Dagger 17.3 8.8 57 21 11 16.1 101.89     LegendNANA
18:00 Legend Double Dagger 15.2 7.8 61 23 13 16.1 101.92     LegendNANA
19:00 Legend Double Dagger 13.6 7.2 65 21 9 16.1 101.93     LegendNANA
20:00 Legend Double Dagger 11.5 7.5 76   0 16.1 101.93     LegendNANA
21:00 Legend Double Dagger 10.0 7.1 82 21 11 16.1 101.94     LegendNANA
22:00 Legend Double Dagger 9.2 7.7 90 20 8 16.1 101.93     LegendNANA
23:00 Legend Double Dagger 7.3 6.5 95 22 5 16.1 101.92     LegendNANA

Notes on Data Quality.

Legend

  • E = Estimated
  • M = Missing
  • NA = Not Available
  • ‡ = Partner data that is not subject to review by the National Climate Archives
Date modified: